{"data":{"norad_id":44311,"epoch":"2026-09-20T04:12:35.741088Z","epoch_age_seconds":86448,"freshness":"FRESH","line1":"1 44311U 19032B   26263.17541367  .00007054  00000+0  25154-3 0  9996","line2":"2 44311  44.9721 210.4711 0025694 160.6198 199.5668 15.29308766402282","mean_motion":15.29308766,"eccentricity":0.0025694,"inclination_deg":44.9721,"raan_deg":210.4711,"arg_perigee_deg":160.6198,"mean_anomaly_deg":199.5668,"bstar":0.00025154,"rev_number":40228,"period_min":94.160187400639,"perigee_km":460.26158226993,"apogee_km":495.4932692009,"semimajor_km":6856.0144257354,"source":"CELESTRAK","updated_at":"2026-09-20T09:00:14.457380Z"}}